Weather in Malykay

Russia / Sakha (Yakutia) Republic     63°30′23″N   117°02′00″E
temp.,
°C
wind,
m/s
gust,
m/s
humid.,
%
clouds,
%
prec.,
mm/h
press.,
hPa
HPBL,
m
9 march, tue
tue900:00−11w379595 0.3 1007253
03:00−15w389495 0.3 1010217
06:00−19wsw269648 0.0 1011100
09:00−19sw389624 0.0 1011196
12:00−11sw369167 0.0 1009425
15:00−9s598884 0.0 1004632
18:00−9sse51187100 0.0 1000863
21:00−8s51292100 0.7 995932
10 march, wed
wed1000:00−7ssw41191100 0.3 993645
03:00−12w61479100 0.5 9941021
06:00−14wsw61582100 0.0 9971267
09:00−15wsw71583100 0.1 9991178
12:00−14w81481100 0.0 10021218
15:00−14w71381100 0.1 10051356
18:00−15w61484100 0.1 10071422
21:00−17w41290100 0.1 10091123
11 march, thu
thu1100:00−19w3128986 0.0 1011420
03:00−22wsw399243 0.0 1012217
06:00−24wsw38940 0.0 1015178
09:00−24wsw399314 0.0 1015268
12:00−17wsw49841 0.0 1015542
15:00−13wsw48770 0.0 1014881
18:00−13wsw23880 0.0 101467
21:00−17ssw23931 0.0 101330
12 march, fri
fri1200:00−17s239591 0.0 101153
03:00−17sse129695 0.0 100924
06:00−17ese1197100 0.0 100820
09:00−16ne1197100 0.0 100732
12:00−11ne129299 0.0 1006264
15:00−9ene1289100 0.1 1006481
18:00−9ene1295100 0.1 1005106
21:00−11se2396100 0.3 100584
13 march, sat
sat1300:00−10sse2496100 0.6 1003146
03:00−13ssw239796 0.7 100260
06:00−13ssw249696 0.0 99973
09:00−11s269597 0.0 996263
12:00−9se2395100 0.4 992278
15:00−6s1193100 1.3 990326
18:00−7wnw3694100 0.6 991514
21:00−8wnw3796100 1.1 994363